Regional Weather Roundup
Issued by NWS

Home | Current Version | Previous Version | Text Only | Print | Product List | Glossary Off
Versions: 1 2 3 4 5 6 7 8 9 10 11 12 13 14 15 16 17 18 19 20 21 22 23 24 25 26 27 28 29 30 31 32 33 34 35 36 37 38 39 40 41 42 43 44 45 46 47 48 49 50

232
ASUS43 KOAX 240702
RWRNE

WEATHER ROUNDUP FOR NEBRASKA
NATIONAL WEATHER SERVICE OMAHA NE
200 AM CDT WED MAY 24 2017

NOTES: SATELLITE DATA IS BEING USED TO AUGMENT CLOUD COVER ABOVE
       12000 FEET.
       "FAIR" INDICATES FEW OR NO CLOUDS BELOW 12,000 FEET WITH NO
       SIGNIFICANT WEATHER AND/OR OBSTRUCTIONS TO VISIBILITY.

  * THESE STATIONS DO NOT REPORT WEATHER SUCH AS RAIN...SNOW OR FOG.

NEZ001>004-019>022-054>056-240800-
NEBRASKA PANHANDLE

CITY           SKY/WX    TMP DP  RH WIND       PRES   REMARKS
SCOTTSBLUFF    CLOUDY    44  38  79 CALM      29.98F
ALLIANCE       CLOUDY    36  32  85 CALM      29.96F
CHADRON        CLOUDY    43  36  76 SW6       29.95F
GORDON         FAIR      35  33  92 CALM      29.96F
KIMBALL        CLOUDY    40  36  84 W6        30.01F
SIDNEY         CLOUDY    34  32  92 W3        30.00F
$$

NEZ057>060-069>072-079>082-240800-
SOUTHWEST NEBRASKA

CITY           SKY/WX    TMP DP  RH WIND       PRES   REMARKS
NORTH PLATTE   CLEAR     36  34  92 NW6       29.96F WCI  31
IMPERIAL       CLEAR     40  34  79 N6        29.99F
LEXINGTON      PTCLDY    39  37  92 W8        29.93F WCI  34
MCCOOK         CLEAR     41  37  86 N9        29.96F
OGALLALA       CLEAR     38  36  92 W6        29.99F WCI  33
$$

NEZ005>010-023>029-035>040-094-240800-
NORTH CENTRAL NEBRASKA

CITY           SKY/WX    TMP DP  RH WIND       PRES   REMARKS
VALENTINE      CLEAR     39  34  82 NW7       29.94F WCI  34
AINSWORTH      CLEAR     41  39  93 NW5       29.92F
BROKEN BOW     CLOUDY    49  41  74 N8        29.92F
O`NEILL        CLOUDY    46  42  85 NW6       29.90F
ORD            MOCLDY    47  41  80 NW7       29.90F
THEDFORD       CLEAR     37  35  93 NW5       29.95F WCI  34
$$

NEZ041-046>049-061>064-073>077-083>087-240800-
SOUTH CENTRAL NEBRASKA

CITY           SKY/WX    TMP DP  RH WIND       PRES   REMARKS
GRAND ISLAND   CLOUDY    50  43  77 N15       29.90F
AURORA         CLOUDY    50  44  81 N13       29.88F
HASTINGS       MOCLDY    50  42  74 N13       29.90F
HEBRON         PTCLDY    49  45  85 NW7       29.86F
HOLDREGE       CLEAR     45  38  78 NW7       29.92F
KEARNEY *      CLOUDY    48  39  71 NW8       29.92F
$$

NEZ011>018-030>034-042>045-240800-
NORTHEAST NEBRASKA

CITY           SKY/WX    TMP DP  RH WIND       PRES   REMARKS
NORFOLK        CLEAR     47  43  86 NW13      29.85F
ALBION         CLOUDY    50  43  75 N8        29.88F
BLAIR          PTCLDY    49  46  89 NW10      29.79F
FREMONT        PTCLDY    49  46  90 NW10      29.82F
TEKAMAH        CLEAR     49  46  90 NW10      29.80F
WAYNE          CLEAR     47  46  99 NW10      29.84F
$$

NEZ050>053-065>068-078-088>093-240800-
SOUTHEAST NEBRASKA

CITY           SKY/WX    TMP DP  RH WIND       PRES   REMARKS
LINCOLN        PTCLDY    51  46  83 NW14      29.84F
OMAHA EPPLEY   CLOUDY    51  46  83 NW9       29.79F
BEATRICE       MOCLDY    50  46  86 NW12G20   29.83S
FALLS CITY     PTCLDY    50  46  86 NW9       29.78F
NEBRASKA CITY  CLEAR     51  46  84 N13       29.79F
PLATTSMOUTH    CLOUDY    49  45  84 NW9       29.79F
$$

NEZ044-045-051>053-067-240800-
OMAHA AREA

CITY           SKY/WX    TMP DP  RH WIND       PRES   REMARKS
OMAHA EPPLEY   CLOUDY    51  46  83 NW9       29.79F
BLAIR          PTCLDY    49  46  89 NW10      29.79F
FREMONT        PTCLDY    49  46  90 NW10      29.82F
MILLARD        PTCLDY    52  48  86 NW6       29.80F
OFFUTT AFB     CLOUDY    51  47  86 NW9       29.78F
PLATTSMOUTH    CLOUDY    49  45  84 NW9       29.79F
WAHOO          FAIR      49  46  89 NW10      29.82F
$$




USA.gov is the U.S. government's official web portal to all federal, state and local government web resources and services.